Time,TemperatureF,DewpointF,PressureIn,WindDirection,WindDirectionDegrees,WindSpeedMPH,WindSpeedGustMPH,Humidity,HourlyPrecipIn,Conditions,Clouds,dailyrainin,SoftwareType,DateUTC
2013-05-27 00:01:00,39.9,38.6,30.05,North,32767,0.0,0.0,95,0.00,,,0.00,Wunderground v.1.15,2013-05-27 04:01:00,
2013-05-27 00:06:00,39.9,38.6,30.05,North,32767,0.0,0.0,95,0.00,,,0.00,Wunderground v.1.15,2013-05-27 04:06:00,
2013-05-27 00:11:00,40.0,38.7,30.05,North,32767,0.0,0.0,95,0.00,,,0.00,Wunderground v.1.15,2013-05-27 04:11:00,
2013-05-27 00:16:00,39.9,38.6,30.05,North,32767,0.0,0.0,95,0.00,,,0.00,Wunderground v.1.15,2013-05-27 04:16:00,
2013-05-27 00:21:00,39.8,38.5,30.05,North,32767,0.0,0.0,95,0.00,,,0.00,Wunderground v.1.15,2013-05-27 04:21:00,
2013-05-27 00:26:00,39.7,38.4,30.04,North,32767,0.0,0.0,95,0.00,,,0.00,Wunderground v.1.15,2013-05-27 04:26:00,
2013-05-27 00:31:00,39.8,38.5,30.04,North,32767,0.0,0.0,95,0.00,,,0.00,Wunderground v.1.15,2013-05-27 04:31:00,
2013-05-27 00:36:00,39.6,38.3,30.04,North,32767,0.0,0.0,95,0.00,,,0.00,Wunderground v.1.15,2013-05-27 04:36:00,
2013-05-27 00:41:00,39.4,37.8,30.04,North,32767,0.0,0.0,94,0.00,,,0.00,Wunderground v.1.15,2013-05-27 04:41:00,
2013-05-27 00:46:00,39.2,37.9,30.04,North,32767,0.0,0.0,95,0.00,,,0.00,Wunderground v.1.15,2013-05-27 04:46:00,
2013-05-27 00:51:00,39.1,37.8,30.04,North,32767,0.0,0.0,95,0.00,,,0.00,Wunderground v.1.15,2013-05-27 04:51:00,
2013-05-27 00:56:00,38.9,37.6,30.04,North,32767,0.0,0.0,95,0.00,,,0.00,Wunderground v.1.15,2013-05-27 04:56:00,
2013-05-27 01:01:00,38.8,37.5,30.04,North,32767,0.0,0.0,95,0.00,,,0.00,Wunderground v.1.15,2013-05-27 05:01:00,
2013-05-27 01:06:00,38.5,37.2,30.04,North,32767,0.0,0.0,95,0.00,,,0.00,Wunderground v.1.15,2013-05-27 05:06:00,
2013-05-27 01:11:00,38.2,36.9,30.04,North,32767,0.0,0.0,95,0.00,,,0.00,Wunderground v.1.15,2013-05-27 05:11:00,
2013-05-27 01:16:00,38.0,36.7,30.04,North,32767,0.0,0.0,95,0.00,,,0.00,Wunderground v.1.15,2013-05-27 05:16:00,
2013-05-27 01:21:00,37.8,36.5,30.04,North,32767,0.0,0.0,95,0.00,,,0.00,Wunderground v.1.15,2013-05-27 05:21:00,
2013-05-27 01:26:00,37.6,36.3,30.04,North,32767,0.0,0.0,95,0.00,,,0.00,Wunderground v.1.15,2013-05-27 05:26:00,
2013-05-27 01:31:00,37.4,36.1,30.04,North,32767,0.0,0.0,95,0.00,,,0.00,Wunderground v.1.15,2013-05-27 05:31:00,
2013-05-27 01:36:00,37.2,35.9,30.04,North,32767,0.0,0.0,95,0.00,,,0.00,Wunderground v.1.15,2013-05-27 05:36:00,
2013-05-27 01:41:00,37.1,35.8,30.03,North,32767,0.0,0.0,95,0.00,,,0.00,Wunderground v.1.15,2013-05-27 05:41:00,
2013-05-27 01:46:00,37.1,35.8,30.03,North,32767,0.0,0.0,95,0.00,,,0.00,Wunderground v.1.15,2013-05-27 05:46:00,
2013-05-27 01:51:00,37.0,35.7,30.04,North,32767,0.0,0.0,95,0.00,,,0.00,Wunderground v.1.15,2013-05-27 05:51:00,
2013-05-27 01:56:00,36.8,35.5,30.03,North,32767,0.0,0.0,95,0.00,,,0.00,Wunderground v.1.15,2013-05-27 05:56:00,
2013-05-27 02:01:00,36.9,35.6,30.03,North,32767,0.0,0.0,95,0.00,,,0.00,Wunderground v.1.15,2013-05-27 06:01:00,
2013-05-27 02:06:00,37.0,36.0,30.04,North,32767,0.0,0.0,96,0.00,,,0.00,Wunderground v.1.15,2013-05-27 06:06:00,
2013-05-27 02:11:00,37.0,36.0,30.04,North,32767,0.0,0.0,96,0.00,,,0.00,Wunderground v.1.15,2013-05-27 06:11:00,
2013-05-27 02:16:00,37.1,36.1,30.04,North,32767,0.0,0.0,96,0.00,,,0.00,Wunderground v.1.15,2013-05-27 06:16:00,
2013-05-27 02:21:00,37.3,36.3,30.04,North,32767,0.0,0.0,96,0.00,,,0.00,Wunderground v.1.15,2013-05-27 06:21:00,
2013-05-27 02:26:00,37.9,36.9,30.04,North,32767,0.0,0.0,96,0.00,,,0.00,Wunderground v.1.15,2013-05-27 06:26:00,
2013-05-27 02:31:00,39.3,38.5,30.04,North,32767,0.0,0.0,97,0.00,,,0.00,Wunderground v.1.15,2013-05-27 06:31:00,
2013-05-27 02:36:00,40.8,40.0,30.04,North,32767,0.0,0.0,97,0.00,,,0.00,Wunderground v.1.15,2013-05-27 06:36:00,
2013-05-27 02:41:00,42.3,40.1,30.04,North,32767,0.0,0.0,92,0.00,,,0.00,Wunderground v.1.15,2013-05-27 06:41:00,
2013-05-27 02:46:00,43.7,39.8,30.04,North,32767,0.0,0.0,86,0.00,,,0.00,Wunderground v.1.15,2013-05-27 06:46:00,
2013-05-27 02:51:00,44.8,39.6,30.04,North,32767,0.0,0.0,82,0.00,,,0.00,Wunderground v.1.15,2013-05-27 06:51:00,
2013-05-27 02:56:00,45.6,39.8,30.04,North,32767,0.0,0.0,80,0.00,,,0.00,Wunderground v.1.15,2013-05-27 06:56:00,
2013-05-27 03:01:00,45.9,40.1,30.04,North,32767,0.0,0.0,80,0.00,,,0.00,Wunderground v.1.15,2013-05-27 07:01:00,
2013-05-27 03:06:00,45.9,39.4,30.04,North,32767,0.0,0.0,78,0.00,,,0.00,Wunderground v.1.15,2013-05-27 07:06:00,
2013-05-27 03:11:00,46.2,39.4,30.05,North,32767,0.0,0.0,77,0.00,,,0.00,Wunderground v.1.15,2013-05-27 07:11:00,
2013-05-27 03:16:00,46.3,38.8,30.05,North,32767,0.0,0.0,75,0.00,,,0.00,Wunderground v.1.15,2013-05-27 07:16:00,
2013-05-27 03:22:00,46.4,38.9,30.05,North,32767,0.0,0.0,75,0.00,,,0.00,Wunderground v.1.15,2013-05-27 07:22:00,
2013-05-27 03:27:00,46.6,38.4,30.05,North,32767,0.0,0.0,73,0.00,,,0.00,Wunderground v.1.15,2013-05-27 07:27:00,
2013-05-27 03:32:00,46.7,38.5,30.05,North,32767,0.0,0.0,73,0.00,,,0.00,Wunderground v.1.15,2013-05-27 07:32:00,
2013-05-27 03:37:00,46.8,38.6,30.05,North,32767,0.0,0.0,73,0.00,,,0.00,Wunderground v.1.15,2013-05-27 07:37:00,
2013-05-27 03:42:00,47.0,38.1,30.06,North,32767,0.0,0.0,71,0.00,,,0.00,Wunderground v.1.15,2013-05-27 07:42:00,
2013-05-27 03:47:00,47.0,38.4,30.06,North,32767,0.0,0.0,72,0.00,,,0.00,Wunderground v.1.15,2013-05-27 07:47:00,
2013-05-27 03:52:00,47.1,38.2,30.06,North,32767,0.0,0.0,71,0.00,,,0.00,Wunderground v.1.15,2013-05-27 07:52:00,
2013-05-27 03:57:00,47.0,38.1,30.06,North,32767,0.0,0.0,71,0.00,,,0.00,Wunderground v.1.15,2013-05-27 07:57:00,
2013-05-27 04:02:00,47.1,38.5,30.07,North,32767,0.0,0.0,72,0.00,,,0.00,Wunderground v.1.15,2013-05-27 08:02:00,
2013-05-27 04:07:00,46.9,38.0,30.07,North,32767,0.0,0.0,71,0.00,,,0.00,Wunderground v.1.15,2013-05-27 08:07:00,
2013-05-27 04:12:00,46.9,37.6,30.07,North,32767,0.0,0.0,70,0.00,,,0.00,Wunderground v.1.15,2013-05-27 08:12:00,
2013-05-27 04:17:00,46.9,38.0,30.07,North,32767,0.0,0.0,71,0.00,,,0.00,Wunderground v.1.15,2013-05-27 08:17:00,
2013-05-27 04:22:00,46.9,38.0,30.07,North,32767,0.0,0.0,71,0.00,,,0.00,Wunderground v.1.15,2013-05-27 08:22:00,
2013-05-27 04:27:00,46.9,38.0,30.07,North,32767,0.0,0.0,71,0.00,,,0.00,Wunderground v.1.15,2013-05-27 08:27:00,
2013-05-27 04:32:00,46.9,37.6,30.08,North,32767,0.0,0.0,70,0.00,,,0.00,Wunderground v.1.15,2013-05-27 08:32:00,
2013-05-27 04:37:00,46.9,37.3,30.08,North,32767,0.0,0.0,69,0.00,,,0.00,Wunderground v.1.15,2013-05-27 08:37:00,
2013-05-27 04:42:00,47.0,37.4,30.08,North,32767,0.0,0.0,69,0.00,,,0.00,Wunderground v.1.15,2013-05-27 08:42:00,
2013-05-27 04:47:00,46.9,38.0,30.08,North,32767,0.0,0.0,71,0.00,,,0.00,Wunderground v.1.15,2013-05-27 08:47:00,
2013-05-27 04:52:00,46.7,37.8,30.08,North,32767,0.0,0.0,71,0.00,,,0.00,Wunderground v.1.15,2013-05-27 08:52:00,
2013-05-27 04:57:00,46.4,37.5,30.09,North,32767,0.0,0.0,71,0.00,,,0.00,Wunderground v.1.15,2013-05-27 08:57:00,
2013-05-27 05:02:00,46.3,37.4,30.09,North,32767,0.0,0.0,71,0.00,,,0.00,Wunderground v.1.15,2013-05-27 09:02:00,
2013-05-27 05:07:00,46.2,37.3,30.09,North,32767,0.0,0.0,71,0.00,,,0.00,Wunderground v.1.15,2013-05-27 09:07:00,
2013-05-27 05:12:00,46.2,37.7,30.09,North,32767,0.0,0.0,72,0.00,,,0.00,Wunderground v.1.15,2013-05-27 09:12:00,
2013-05-27 05:17:00,46.2,37.7,30.09,North,32767,0.0,0.0,72,0.00,,,0.00,Wunderground v.1.15,2013-05-27 09:17:00,
2013-05-27 05:22:00,46.1,37.2,30.09,North,32767,0.0,0.0,71,0.00,,,0.00,Wunderground v.1.15,2013-05-27 09:22:00,
2013-05-27 05:27:00,46.1,37.2,30.10,North,32767,0.0,0.0,71,0.00,,,0.00,Wunderground v.1.15,2013-05-27 09:27:00,
2013-05-27 05:32:00,46.1,37.2,30.09,North,32767,0.0,0.0,71,0.00,,,0.00,Wunderground v.1.15,2013-05-27 09:32:00,
2013-05-27 05:37:00,46.4,37.5,30.10,North,32767,0.0,0.0,71,0.00,,,0.00,Wunderground v.1.15,2013-05-27 09:37:00,
2013-05-27 05:42:00,46.5,37.2,30.10,North,32767,0.0,0.0,70,0.00,,,0.00,Wunderground v.1.15,2013-05-27 09:42:00,
2013-05-27 05:47:00,46.4,37.5,30.10,North,32767,0.0,0.0,71,0.00,,,0.00,Wunderground v.1.15,2013-05-27 09:47:00,
2013-05-27 05:52:00,46.4,37.5,30.10,North,32767,0.0,0.0,71,0.00,,,0.00,Wunderground v.1.15,2013-05-27 09:52:00,
2013-05-27 05:57:00,46.4,37.5,30.10,North,32767,0.0,0.0,71,0.00,,,0.00,Wunderground v.1.15,2013-05-27 09:57:00,
2013-05-27 06:02:00,46.5,37.6,30.10,North,32767,0.0,0.0,71,0.00,,,0.00,Wunderground v.1.15,2013-05-27 10:02:00,
2013-05-27 06:07:00,46.6,37.7,30.11,North,32767,0.0,0.0,71,0.00,,,0.00,Wunderground v.1.15,2013-05-27 10:07:00,
2013-05-27 06:12:00,46.7,37.8,30.11,North,32767,0.0,0.0,71,0.00,,,0.00,Wunderground v.1.15,2013-05-27 10:12:00,
2013-05-27 06:17:00,46.7,37.8,30.11,North,32767,0.0,0.0,71,0.00,,,0.00,Wunderground v.1.15,2013-05-27 10:17:00,
2013-05-27 06:22:00,46.8,37.9,30.11,North,32767,0.0,0.0,71,0.00,,,0.00,Wunderground v.1.15,2013-05-27 10:22:00,
2013-05-27 06:27:00,47.0,37.0,30.11,North,32767,0.0,0.0,68,0.00,,,0.00,Wunderground v.1.15,2013-05-27 10:27:00,
2013-05-27 06:32:00,47.4,37.7,30.12,North,32767,0.0,0.0,69,0.00,,,0.00,Wunderground v.1.15,2013-05-27 10:32:00,
2013-05-27 06:37:00,47.6,38.3,30.12,North,32767,0.0,0.0,70,0.00,,,0.00,Wunderground v.1.15,2013-05-27 10:37:00,
2013-05-27 06:42:00,47.7,38.4,30.12,North,32767,0.0,0.0,70,0.00,,,0.00,Wunderground v.1.15,2013-05-27 10:42:00,
2013-05-27 06:47:00,47.8,38.8,30.12,North,32767,0.0,0.0,71,0.00,,,0.00,Wunderground v.1.15,2013-05-27 10:47:00,
2013-05-27 06:52:00,47.9,38.6,30.12,North,32767,0.0,0.0,70,0.00,,,0.00,Wunderground v.1.15,2013-05-27 10:52:00,
2013-05-27 06:57:00,48.2,38.5,30.12,North,32767,0.0,0.0,69,0.00,,,0.00,Wunderground v.1.15,2013-05-27 10:57:00,
2013-05-27 07:02:00,48.5,38.8,30.13,North,32767,0.0,0.0,69,0.00,,,0.00,Wunderground v.1.15,2013-05-27 11:02:00,
2013-05-27 07:07:00,48.9,38.4,30.13,North,32767,0.0,0.0,67,0.00,,,0.00,Wunderground v.1.15,2013-05-27 11:07:00,
2013-05-27 07:12:00,49.2,39.1,30.13,North,32767,0.0,0.0,68,0.00,,,0.00,Wunderground v.1.15,2013-05-27 11:12:00,
2013-05-27 07:17:00,49.4,39.3,30.13,North,32767,0.0,0.0,68,0.00,,,0.00,Wunderground v.1.15,2013-05-27 11:17:00,
2013-05-27 07:22:00,49.8,38.9,30.13,North,32767,0.0,0.0,66,0.00,,,0.00,Wunderground v.1.15,2013-05-27 11:22:00,
2013-05-27 07:27:00,50.0,39.1,30.13,North,32767,0.0,0.0,66,0.00,,,0.00,Wunderground v.1.15,2013-05-27 11:27:00,
2013-05-27 07:32:00,50.3,39.4,30.13,North,32767,0.0,0.0,66,0.00,,,0.00,Wunderground v.1.15,2013-05-27 11:32:00,
2013-05-27 07:37:00,50.5,39.2,30.13,North,32767,0.0,0.0,65,0.00,,,0.00,Wunderground v.1.15,2013-05-27 11:37:00,
2013-05-27 07:42:00,50.8,39.8,30.13,North,32767,0.0,0.0,66,0.00,,,0.00,Wunderground v.1.15,2013-05-27 11:42:00,
2013-05-27 07:47:00,51.0,38.8,30.13,North,32767,0.0,0.0,63,0.00,,,0.00,Wunderground v.1.15,2013-05-27 11:47:00,
2013-05-27 07:52:00,51.4,40.8,30.13,North,32767,0.0,0.0,67,0.00,,,0.00,Wunderground v.1.15,2013-05-27 11:52:00,
2013-05-27 07:57:00,51.6,40.2,30.13,North,32767,0.0,0.0,65,0.00,,,0.00,Wunderground v.1.15,2013-05-27 11:57:00,
2013-05-27 08:02:00,51.8,40.4,30.14,North,32767,0.0,0.0,65,0.00,,,0.00,Wunderground v.1.15,2013-05-27 12:02:00,
2013-05-27 08:07:00,52.1,41.1,30.13,North,32767,0.0,0.0,66,0.00,,,0.00,Wunderground v.1.15,2013-05-27 12:07:00,
2013-05-27 08:13:00,52.4,41.4,30.14,North,32767,0.0,0.0,66,0.00,,,0.00,Wunderground v.1.15,2013-05-27 12:13:00,
2013-05-27 08:18:00,52.7,41.3,30.14,North,32767,0.0,0.0,65,0.00,,,0.00,Wunderground v.1.15,2013-05-27 12:18:00,
2013-05-27 08:23:00,53.1,41.2,30.14,North,32767,0.0,0.0,64,0.00,,,0.00,Wunderground v.1.15,2013-05-27 12:23:00,
2013-05-27 08:28:00,53.3,41.8,30.14,North,32767,0.0,0.0,65,0.00,,,0.00,Wunderground v.1.15,2013-05-27 12:28:00,
2013-05-27 08:33:00,53.5,40.8,30.15,North,32767,0.0,0.0,62,0.00,,,0.00,Wunderground v.1.15,2013-05-27 12:33:00,
2013-05-27 08:38:00,54.0,42.9,30.15,North,32767,0.0,0.0,66,0.00,,,0.00,Wunderground v.1.15,2013-05-27 12:38:00,
2013-05-27 08:43:00,54.2,41.0,30.15,North,32767,0.0,0.0,61,0.00,,,0.00,Wunderground v.1.15,2013-05-27 12:43:00,
2013-05-27 08:48:00,54.6,42.3,30.15,North,32767,0.0,0.0,63,0.00,,,0.00,Wunderground v.1.15,2013-05-27 12:48:00,
2013-05-27 08:53:00,55.0,40.9,30.15,North,32767,0.0,0.0,59,0.00,,,0.00,Wunderground v.1.15,2013-05-27 12:53:00,
2013-05-27 08:58:00,55.3,42.1,30.15,North,32767,0.0,0.0,61,0.00,,,0.00,Wunderground v.1.15,2013-05-27 12:58:00,
2013-05-27 09:03:00,55.7,42.5,30.15,North,32767,0.0,0.0,61,0.00,,,0.00,Wunderground v.1.15,2013-05-27 13:03:00,
2013-05-27 09:08:00,56.2,42.5,30.15,North,32767,0.0,0.0,60,0.00,,,0.00,Wunderground v.1.15,2013-05-27 13:08:00,
2013-05-27 09:13:00,56.7,43.0,30.15,North,32767,0.0,0.0,60,0.00,,,0.00,Wunderground v.1.15,2013-05-27 13:13:00,
2013-05-27 09:18:00,57.3,41.7,30.15,North,32767,0.0,0.0,56,0.00,,,0.00,Wunderground v.1.15,2013-05-27 13:18:00,
2013-05-27 09:23:00,57.8,43.6,30.15,North,32767,0.0,0.0,59,0.00,,,0.00,Wunderground v.1.15,2013-05-27 13:23:00,
2013-05-27 09:28:00,58.0,42.4,30.15,North,32767,0.0,0.0,56,0.00,,,0.00,Wunderground v.1.15,2013-05-27 13:28:00,
2013-05-27 09:33:00,58.3,42.7,30.15,North,32767,0.0,0.0,56,0.00,,,0.00,Wunderground v.1.15,2013-05-27 13:33:00,
2013-05-27 09:38:00,58.6,41.5,30.15,North,32767,0.0,0.0,53,0.00,,,0.00,Wunderground v.1.15,2013-05-27 13:38:00,
2013-05-27 09:43:00,59.1,42.9,30.15,North,32767,0.0,0.0,55,0.00,,,0.00,Wunderground v.1.15,2013-05-27 13:43:00,
2013-05-27 09:48:00,59.5,43.3,30.15,North,32767,0.0,0.0,55,0.00,,,0.00,Wunderground v.1.15,2013-05-27 13:48:00,
2013-05-27 09:53:00,60.0,43.3,30.15,North,32767,0.0,0.0,54,0.00,,,0.00,Wunderground v.1.15,2013-05-27 13:53:00,
2013-05-27 09:58:00,59.9,40.7,30.15,North,32767,0.0,0.0,49,0.00,,,0.00,Wunderground v.1.15,2013-05-27 13:58:00,
2013-05-27 10:03:00,59.7,40.0,30.15,North,32767,0.0,0.0,48,0.00,,,0.00,Wunderground v.1.15,2013-05-27 14:03:00,
2013-05-27 10:08:00,59.5,40.3,30.15,North,32767,0.0,0.0,49,0.00,,,0.00,Wunderground v.1.15,2013-05-27 14:08:00,
2013-05-27 10:13:00,59.5,40.3,30.15,North,32767,0.0,0.0,49,0.00,,,0.00,Wunderground v.1.15,2013-05-27 14:13:00,
2013-05-27 10:18:00,60.0,41.8,30.15,North,32767,0.0,0.0,51,0.00,,,0.00,Wunderground v.1.15,2013-05-27 14:18:00,
2013-05-27 10:23:00,59.9,39.6,30.16,North,32767,0.0,0.0,47,0.00,,,0.00,Wunderground v.1.15,2013-05-27 14:23:00,
2013-05-27 10:29:00,59.8,40.1,30.15,North,32767,0.0,0.0,48,0.00,,,0.00,Wunderground v.1.15,2013-05-27 14:29:00,
2013-05-27 10:34:00,59.8,41.6,30.15,North,32767,0.0,0.0,51,0.00,,,0.00,Wunderground v.1.15,2013-05-27 14:34:00,
2013-05-27 10:39:00,60.3,40.5,30.15,North,32767,0.0,0.0,48,0.00,,,0.00,Wunderground v.1.15,2013-05-27 14:39:00,
2013-05-27 10:44:00,60.8,39.9,30.15,North,32767,0.0,0.0,46,0.00,,,0.00,Wunderground v.1.15,2013-05-27 14:44:00,
2013-05-27 10:49:00,60.8,41.5,30.15,North,32767,0.0,0.0,49,0.00,,,0.00,Wunderground v.1.15,2013-05-27 14:49:00,
2013-05-27 10:54:00,60.9,40.0,30.15,North,32767,0.0,0.0,46,0.00,,,0.00,Wunderground v.1.15,2013-05-27 14:54:00,
2013-05-27 10:59:00,60.9,39.4,30.15,North,32767,0.0,0.0,45,0.00,,,0.00,Wunderground v.1.15,2013-05-27 14:59:00,
2013-05-27 11:04:00,60.8,42.0,30.15,North,32767,0.0,0.0,50,0.00,,,0.00,Wunderground v.1.15,2013-05-27 15:04:00,
2013-05-27 11:09:00,60.7,40.9,30.15,North,32767,0.0,0.0,48,0.00,,,0.00,Wunderground v.1.15,2013-05-27 15:09:00,
2013-05-27 11:14:00,61.1,40.1,30.15,North,32767,0.0,0.0,46,0.00,,,0.00,Wunderground v.1.15,2013-05-27 15:14:00,
2013-05-27 11:19:00,61.1,40.7,30.15,North,32767,0.0,0.0,47,0.00,,,0.00,Wunderground v.1.15,2013-05-27 15:19:00,
2013-05-27 11:24:00,61.4,41.5,30.15,North,32767,0.0,0.0,48,0.00,,,0.00,Wunderground v.1.15,2013-05-27 15:24:00,
2013-05-27 11:29:00,61.5,40.5,30.15,North,32767,0.0,0.0,46,0.00,,,0.00,Wunderground v.1.15,2013-05-27 15:29:00,
2013-05-27 11:34:00,61.3,37.4,30.15,North,32767,0.0,0.0,41,0.00,,,0.00,Wunderground v.1.15,2013-05-27 15:34:00,
2013-05-27 11:39:00,61.2,41.9,30.15,North,32767,0.0,0.0,49,0.00,,,0.00,Wunderground v.1.15,2013-05-27 15:39:00,
2013-05-27 11:44:00,61.3,39.8,30.14,North,32767,0.0,0.0,45,0.00,,,0.00,Wunderground v.1.15,2013-05-27 15:44:00,
2013-05-27 11:49:00,61.7,39.0,30.14,North,32767,0.0,0.0,43,0.00,,,0.00,Wunderground v.1.15,2013-05-27 15:49:00,
2013-05-27 11:54:00,61.9,39.1,30.14,North,32767,0.0,0.0,43,0.00,,,0.00,Wunderground v.1.15,2013-05-27 15:54:00,
2013-05-27 11:59:00,62.2,41.7,30.14,North,32767,0.0,0.0,47,0.00,,,0.00,Wunderground v.1.15,2013-05-27 15:59:00,
2013-05-27 12:04:00,62.9,42.4,30.14,North,32767,0.0,0.0,47,0.00,,,0.00,Wunderground v.1.15,2013-05-27 16:04:00,
2013-05-27 12:09:00,63.0,43.5,30.14,North,32767,0.0,0.0,49,0.00,,,0.00,Wunderground v.1.15,2013-05-27 16:09:00,
2013-05-27 12:14:00,63.0,41.9,30.13,North,32767,0.0,0.0,46,0.00,,,0.00,Wunderground v.1.15,2013-05-27 16:14:00,
2013-05-27 12:19:00,62.9,43.4,30.13,North,32767,0.0,0.0,49,0.00,,,0.00,Wunderground v.1.15,2013-05-27 16:19:00,
2013-05-27 12:24:00,63.3,42.7,30.13,North,32767,0.0,0.0,47,0.00,,,0.00,Wunderground v.1.15,2013-05-27 16:24:00,
2013-05-27 12:29:00,63.7,43.1,30.13,North,32767,0.0,0.0,47,0.00,,,0.00,Wunderground v.1.15,2013-05-27 16:29:00,
2013-05-27 12:34:00,63.8,40.3,30.13,North,32767,0.0,0.0,42,0.00,,,0.00,Wunderground v.1.15,2013-05-27 16:34:00,
2013-05-27 12:39:00,63.6,41.9,30.13,North,32767,0.0,0.0,45,0.00,,,0.00,Wunderground v.1.15,2013-05-27 16:39:00,
2013-05-27 12:44:00,63.8,43.7,30.12,North,32767,0.0,0.0,48,0.00,,,0.00,Wunderground v.1.15,2013-05-27 16:44:00,
2013-05-27 12:49:00,63.8,40.3,30.12,North,32767,0.0,0.0,42,0.00,,,0.00,Wunderground v.1.15,2013-05-27 16:49:00,
2013-05-27 12:54:00,63.9,42.7,30.12,North,32767,0.0,0.0,46,0.00,,,0.00,Wunderground v.1.15,2013-05-27 16:54:00,
2013-05-27 12:59:00,64.2,42.4,30.11,North,32767,0.0,0.0,45,0.00,,,0.00,Wunderground v.1.15,2013-05-27 16:59:00,
2013-05-27 13:04:00,64.5,42.1,30.11,North,32767,0.0,0.0,44,0.00,,,0.00,Wunderground v.1.15,2013-05-27 17:04:00,
2013-05-27 13:09:00,64.3,38.8,30.11,North,32767,0.0,0.0,39,0.00,,,0.00,Wunderground v.1.15,2013-05-27 17:09:00,
2013-05-27 13:14:00,64.3,42.5,30.11,North,32767,0.0,0.0,45,0.00,,,0.00,Wunderground v.1.15,2013-05-27 17:14:00,
2013-05-27 13:19:00,64.9,43.0,30.11,North,32767,0.0,0.0,45,0.00,,,0.00,Wunderground v.1.15,2013-05-27 17:19:00,
2013-05-27 13:24:00,65.3,44.5,30.11,North,32767,0.0,0.0,47,0.00,,,0.00,Wunderground v.1.15,2013-05-27 17:24:00,
2013-05-27 13:29:00,65.4,42.9,30.11,North,32767,0.0,0.0,44,0.00,,,0.00,Wunderground v.1.15,2013-05-27 17:29:00,
2013-05-27 13:34:00,65.7,44.9,30.11,North,32767,0.0,0.0,47,0.00,,,0.00,Wunderground v.1.15,2013-05-27 17:34:00,
2013-05-27 13:39:00,66.1,41.7,30.11,North,32767,0.0,0.0,41,0.00,,,0.00,Wunderground v.1.15,2013-05-27 17:39:00,
2013-05-27 13:44:00,66.4,45.5,30.11,North,32767,0.0,0.0,47,0.00,,,0.00,Wunderground v.1.15,2013-05-27 17:44:00,
2013-05-27 13:49:00,67.1,45.6,30.10,North,32767,0.0,0.0,46,0.00,,,0.00,Wunderground v.1.15,2013-05-27 17:49:00,
2013-05-27 13:54:00,66.9,44.9,30.11,North,32767,0.0,0.0,45,0.00,,,0.00,Wunderground v.1.15,2013-05-27 17:54:00,
2013-05-27 13:59:00,66.5,41.4,30.10,North,32767,0.0,0.0,40,0.00,,,0.00,Wunderground v.1.15,2013-05-27 17:59:00,
2013-05-27 14:04:00,66.8,45.9,30.10,North,32767,0.0,0.0,47,0.00,,,0.00,Wunderground v.1.15,2013-05-27 18:04:00,
2013-05-27 14:09:00,67.2,44.5,30.10,North,32767,0.0,0.0,44,0.00,,,0.00,Wunderground v.1.15,2013-05-27 18:09:00,
2013-05-27 14:14:00,67.1,43.2,30.10,North,32767,0.0,0.0,42,0.00,,,0.00,Wunderground v.1.15,2013-05-27 18:14:00,
2013-05-27 14:19:00,66.8,43.0,30.10,North,32767,0.0,0.0,42,0.00,,,0.00,Wunderground v.1.15,2013-05-27 18:19:00,
2013-05-27 14:24:00,66.7,41.6,30.10,North,32767,0.0,0.0,40,0.00,,,0.00,Wunderground v.1.15,2013-05-27 18:24:00,
2013-05-27 14:29:00,66.5,43.3,30.10,North,32767,0.0,0.0,43,0.00,,,0.00,Wunderground v.1.15,2013-05-27 18:29:00,
2013-05-27 14:34:00,66.6,41.5,30.10,North,32767,0.0,0.0,40,0.00,,,0.00,Wunderground v.1.15,2013-05-27 18:34:00,
2013-05-27 14:39:00,66.7,40.9,30.09,North,32767,0.0,0.0,39,0.00,,,0.00,Wunderground v.1.15,2013-05-27 18:39:00,
2013-05-27 14:44:00,67.2,44.5,30.10,North,32767,0.0,0.0,44,0.00,,,0.00,Wunderground v.1.15,2013-05-27 18:44:00,
2013-05-27 14:49:00,67.7,43.1,30.10,North,32767,0.0,0.0,41,0.00,,,0.00,Wunderground v.1.15,2013-05-27 18:49:00,
2013-05-27 14:54:00,67.5,40.3,30.10,North,32767,0.0,0.0,37,0.00,,,0.00,Wunderground v.1.15,2013-05-27 18:54:00,
2013-05-27 14:59:00,67.4,43.5,30.10,North,32767,0.0,0.0,42,0.00,,,0.00,Wunderground v.1.15,2013-05-27 18:59:00,
2013-05-27 15:04:00,67.1,42.0,30.10,North,32767,0.0,0.0,40,0.00,,,0.00,Wunderground v.1.15,2013-05-27 19:04:00,
2013-05-27 15:09:00,67.1,40.6,30.10,North,32767,0.0,0.0,38,0.00,,,0.00,Wunderground v.1.15,2013-05-27 19:09:00,
2013-05-27 15:14:00,67.3,42.8,30.09,North,32767,0.0,0.0,41,0.00,,,0.00,Wunderground v.1.15,2013-05-27 19:14:00,
2013-05-27 15:19:00,67.2,42.7,30.10,North,32767,0.0,0.0,41,0.00,,,0.00,Wunderground v.1.15,2013-05-27 19:19:00,
2013-05-27 15:24:00,67.3,45.2,30.09,North,32767,0.0,0.0,45,0.00,,,0.00,Wunderground v.1.15,2013-05-27 19:24:00,
2013-05-27 15:29:00,67.6,42.4,30.09,North,32767,0.0,0.0,40,0.00,,,0.00,Wunderground v.1.15,2013-05-27 19:29:00,
2013-05-27 15:34:00,68.1,42.2,30.09,North,32767,0.0,0.0,39,0.00,,,0.00,Wunderground v.1.15,2013-05-27 19:34:00,
2013-05-27 15:39:00,67.9,41.3,30.09,North,32767,0.0,0.0,38,0.00,,,0.00,Wunderground v.1.15,2013-05-27 19:39:00,
2013-05-27 15:44:00,67.5,40.3,30.09,North,32767,0.0,0.0,37,0.00,,,0.00,Wunderground v.1.15,2013-05-27 19:44:00,
2013-05-27 15:50:00,67.7,42.5,30.09,North,32767,0.0,0.0,40,0.00,,,0.00,Wunderground v.1.15,2013-05-27 19:50:00,
2013-05-27 15:55:00,68.3,43.0,30.09,North,32767,0.0,0.0,40,0.00,,,0.00,Wunderground v.1.15,2013-05-27 19:55:00,
2013-05-27 16:00:00,68.6,41.3,30.09,North,32767,0.0,0.0,37,0.00,,,0.00,Wunderground v.1.15,2013-05-27 20:00:00,
2013-05-27 16:05:00,68.9,41.5,30.09,North,32767,0.0,0.0,37,0.00,,,0.00,Wunderground v.1.15,2013-05-27 20:05:00,
2013-05-27 16:10:00,68.8,44.1,30.09,North,32767,0.0,0.0,41,0.00,,,0.00,Wunderground v.1.15,2013-05-27 20:10:00,
2013-05-27 16:15:00,68.5,43.2,30.09,North,32767,0.0,0.0,40,0.00,,,0.00,Wunderground v.1.15,2013-05-27 20:15:00,
2013-05-27 16:20:00,67.8,41.9,30.09,North,32767,0.0,0.0,39,0.00,,,0.00,Wunderground v.1.15,2013-05-27 20:20:00,
2013-05-27 16:25:00,67.8,42.6,30.09,North,32767,0.0,0.0,40,0.00,,,0.00,Wunderground v.1.15,2013-05-27 20:25:00,
2013-05-27 16:30:00,68.2,42.9,30.09,North,32767,0.0,0.0,40,0.00,,,0.00,Wunderground v.1.15,2013-05-27 20:30:00,
2013-05-27 16:35:00,67.7,39.0,30.09,North,32767,0.0,0.0,35,0.00,,,0.00,Wunderground v.1.15,2013-05-27 20:35:00,
2013-05-27 16:40:00,67.7,45.0,30.09,North,32767,0.0,0.0,44,0.00,,,0.00,Wunderground v.1.15,2013-05-27 20:40:00,
2013-05-27 16:45:00,67.2,42.7,30.09,North,32767,0.0,0.0,41,0.00,,,0.00,Wunderground v.1.15,2013-05-27 20:45:00,
2013-05-27 16:50:00,66.9,41.8,30.09,North,32767,0.0,0.0,40,0.00,,,0.00,Wunderground v.1.15,2013-05-27 20:50:00,
2013-05-27 16:55:00,66.9,41.1,30.09,North,32767,0.0,0.0,39,0.00,,,0.00,Wunderground v.1.15,2013-05-27 20:55:00,
2013-05-27 17:00:00,67.0,45.5,30.09,North,32767,0.0,0.0,46,0.00,,,0.00,Wunderground v.1.15,2013-05-27 21:00:00,
2013-05-27 17:05:00,67.0,41.2,30.09,North,32767,0.0,0.0,39,0.00,,,0.00,Wunderground v.1.15,2013-05-27 21:05:00,
2013-05-27 17:10:00,67.1,41.3,30.09,North,32767,0.0,0.0,39,0.00,,,0.00,Wunderground v.1.15,2013-05-27 21:10:00,
2013-05-27 17:15:00,66.5,40.8,30.09,North,32767,0.0,0.0,39,0.00,,,0.00,Wunderground v.1.15,2013-05-27 21:15:00,
2013-05-27 17:20:00,66.2,40.5,30.09,North,32767,0.0,0.0,39,0.00,,,0.00,Wunderground v.1.15,2013-05-27 21:20:00,
2013-05-27 17:25:00,66.1,41.1,30.09,North,32767,0.0,0.0,40,0.00,,,0.00,Wunderground v.1.15,2013-05-27 21:25:00,
2013-05-27 17:30:00,66.1,42.9,30.09,North,32767,0.0,0.0,43,0.00,,,0.00,Wunderground v.1.15,2013-05-27 21:30:00,
2013-05-27 17:35:00,66.1,41.7,30.09,North,32767,0.0,0.0,41,0.00,,,0.00,Wunderground v.1.15,2013-05-27 21:35:00,
2013-05-27 17:40:00,65.9,38.9,30.09,North,32767,0.0,0.0,37,0.00,,,0.00,Wunderground v.1.15,2013-05-27 21:40:00,
2013-05-27 17:45:00,65.8,38.8,30.09,North,32767,0.0,0.0,37,0.00,,,0.00,Wunderground v.1.15,2013-05-27 21:45:00,
2013-05-27 17:50:00,65.4,41.7,30.09,North,32767,0.0,0.0,42,0.00,,,0.00,Wunderground v.1.15,2013-05-27 21:50:00,
2013-05-27 17:55:00,65.0,38.8,30.09,North,32767,0.0,0.0,38,0.00,,,0.00,Wunderground v.1.15,2013-05-27 21:55:00,
2013-05-27 18:00:00,64.5,38.3,30.09,North,32767,0.0,0.0,38,0.00,,,0.00,Wunderground v.1.15,2013-05-27 22:00:00,
2013-05-27 18:05:00,64.0,39.2,30.09,North,32767,0.0,0.0,40,0.00,,,0.00,Wunderground v.1.15,2013-05-27 22:05:00,
2013-05-27 18:10:00,63.8,39.0,30.09,North,32767,0.0,0.0,40,0.00,,,0.00,Wunderground v.1.15,2013-05-27 22:10:00,
2013-05-27 18:15:00,63.6,39.5,30.09,North,32767,0.0,0.0,41,0.00,,,0.00,Wunderground v.1.15,2013-05-27 22:15:00,
2013-05-27 18:20:00,63.5,39.4,30.09,North,32767,0.0,0.0,41,0.00,,,0.00,Wunderground v.1.15,2013-05-27 22:20:00,
2013-05-27 18:25:00,63.4,39.9,30.09,North,32767,0.0,0.0,42,0.00,,,0.00,Wunderground v.1.15,2013-05-27 22:25:00,
2013-05-27 18:30:00,63.2,40.3,30.09,North,32767,0.0,0.0,43,0.00,,,0.00,Wunderground v.1.15,2013-05-27 22:30:00,
2013-05-27 18:35:00,63.0,40.1,30.09,North,32767,0.0,0.0,43,0.00,,,0.00,Wunderground v.1.15,2013-05-27 22:35:00,
2013-05-27 18:40:00,62.8,38.7,30.10,North,32767,0.0,0.0,41,0.00,,,0.00,Wunderground v.1.15,2013-05-27 22:40:00,
2013-05-27 18:45:00,62.7,39.9,30.10,North,32767,0.0,0.0,43,0.00,,,0.00,Wunderground v.1.15,2013-05-27 22:45:00,
2013-05-27 18:50:00,62.5,40.3,30.10,North,32767,0.0,0.0,44,0.00,,,0.00,Wunderground v.1.15,2013-05-27 22:50:00,
2013-05-27 18:55:00,62.3,38.9,30.10,North,32767,0.0,0.0,42,0.00,,,0.00,Wunderground v.1.15,2013-05-27 22:55:00,
2013-05-27 19:01:00,62.1,38.7,30.10,North,32767,0.0,0.0,42,0.00,,,0.00,Wunderground v.1.15,2013-05-27 23:01:00,
2013-05-27 19:06:00,61.9,38.5,30.10,North,32767,0.0,0.0,42,0.00,,,0.00,Wunderground v.1.15,2013-05-27 23:06:00,
2013-05-27 19:11:00,61.7,40.1,30.10,North,32767,0.0,0.0,45,0.00,,,0.00,Wunderground v.1.15,2013-05-27 23:11:00,
2013-05-27 19:16:00,61.4,39.9,30.10,North,32767,0.0,0.0,45,0.00,,,0.00,Wunderground v.1.15,2013-05-27 23:16:00,
2013-05-27 19:21:00,61.3,40.3,30.10,North,32767,0.0,0.0,46,0.00,,,0.00,Wunderground v.1.15,2013-05-27 23:21:00,
2013-05-27 19:26:00,61.1,40.1,30.10,North,32767,0.0,0.0,46,0.00,,,0.00,Wunderground v.1.15,2013-05-27 23:26:00,
2013-05-27 19:31:00,60.7,41.9,30.10,North,32767,0.0,0.0,50,0.00,,,0.00,Wunderground v.1.15,2013-05-27 23:31:00,
2013-05-27 19:36:00,60.3,42.1,30.11,North,32767,0.0,0.0,51,0.00,,,0.00,Wunderground v.1.15,2013-05-27 23:36:00,
2013-05-27 19:41:00,59.8,42.1,30.11,North,32767,0.0,0.0,52,0.00,,,0.00,Wunderground v.1.15,2013-05-27 23:41:00,
2013-05-27 19:46:00,59.3,42.2,30.10,North,32767,0.0,0.0,53,0.00,,,0.00,Wunderground v.1.15,2013-05-27 23:46:00,
2013-05-27 19:51:00,58.7,44.8,30.11,North,32767,0.0,0.0,60,0.00,,,0.00,Wunderground v.1.15,2013-05-27 23:51:00,
2013-05-27 19:56:00,57.9,45.4,30.11,North,32767,0.0,0.0,63,0.00,,,0.00,Wunderground v.1.15,2013-05-27 23:56:00,
2013-05-27 20:01:00,57.3,46.0,30.11,North,32767,0.0,0.0,66,0.00,,,0.00,Wunderground v.1.15,2013-05-28 00:01:00,
2013-05-27 20:06:00,56.6,47.3,30.11,North,32767,0.0,0.0,71,0.00,,,0.00,Wunderground v.1.15,2013-05-28 00:06:00,
2013-05-27 20:11:00,55.9,47.0,30.11,North,32767,0.0,0.0,72,0.00,,,0.00,Wunderground v.1.15,2013-05-28 00:11:00,
2013-05-27 20:16:00,54.8,46.7,30.11,North,32767,0.0,0.0,74,0.00,,,0.00,Wunderground v.1.15,2013-05-28 00:16:00,
2013-05-27 20:21:00,54.0,47.0,30.10,North,32767,0.0,0.0,77,0.00,,,0.00,Wunderground v.1.15,2013-05-28 00:21:00,
2013-05-27 20:26:00,53.2,45.1,30.10,North,32767,0.0,0.0,74,0.00,,,0.00,Wunderground v.1.15,2013-05-28 00:26:00,
2013-05-27 20:31:00,52.6,44.9,30.11,North,32767,0.0,0.0,75,0.00,,,0.00,Wunderground v.1.15,2013-05-28 00:31:00,
2013-05-27 20:36:00,51.9,44.9,30.10,North,32767,0.0,0.0,77,0.00,,,0.00,Wunderground v.1.15,2013-05-28 00:36:00,
2013-05-27 20:41:00,51.4,45.1,30.10,North,32767,0.0,0.0,79,0.00,,,0.00,Wunderground v.1.15,2013-05-28 00:41:00,
2013-05-27 20:46:00,51.1,44.8,30.10,North,32767,0.0,0.0,79,0.00,,,0.00,Wunderground v.1.15,2013-05-28 00:46:00,
2013-05-27 20:51:00,50.7,44.1,30.10,North,32767,0.0,0.0,78,0.00,,,0.00,Wunderground v.1.15,2013-05-28 00:51:00,
2013-05-27 20:56:00,50.5,45.2,30.10,North,32767,0.0,0.0,82,0.00,,,0.00,Wunderground v.1.15,2013-05-28 00:56:00,
2013-05-27 21:01:00,50.2,45.6,30.11,North,32767,0.0,0.0,84,0.00,,,0.00,Wunderground v.1.15,2013-05-28 01:01:00,
2013-05-27 21:06:00,49.8,45.2,30.10,North,32767,0.0,0.0,84,0.00,,,0.00,Wunderground v.1.15,2013-05-28 01:06:00,
2013-05-27 21:11:00,49.5,44.9,30.11,North,32767,0.0,0.0,84,0.00,,,0.00,Wunderground v.1.15,2013-05-28 01:11:00,
2013-05-27 21:16:00,49.2,44.3,30.11,North,32767,0.0,0.0,83,0.00,,,0.00,Wunderground v.1.15,2013-05-28 01:16:00,
2013-05-27 21:21:00,49.2,44.6,30.11,North,32767,0.0,0.0,84,0.00,,,0.00,Wunderground v.1.15,2013-05-28 01:21:00,
2013-05-27 21:26:00,49.1,44.2,30.11,North,32767,0.0,0.0,83,0.00,,,0.00,Wunderground v.1.15,2013-05-28 01:26:00,
2013-05-27 21:31:00,49.1,43.5,30.11,North,32767,0.0,0.0,81,0.00,,,0.00,Wunderground v.1.15,2013-05-28 01:31:00,
2013-05-27 21:36:00,49.1,42.5,30.11,North,32767,0.0,0.0,78,0.00,,,0.00,Wunderground v.1.15,2013-05-28 01:36:00,
2013-05-27 21:41:00,49.1,43.8,30.11,North,32767,0.0,0.0,82,0.00,,,0.00,Wunderground v.1.15,2013-05-28 01:41:00,
2013-05-27 21:46:00,48.8,43.5,30.11,North,32767,0.0,0.0,82,0.00,,,0.00,Wunderground v.1.15,2013-05-28 01:46:00,
2013-05-27 21:51:00,48.5,42.9,30.11,North,32767,0.0,0.0,81,0.00,,,0.00,Wunderground v.1.15,2013-05-28 01:51:00,
2013-05-27 21:56:00,48.2,43.0,30.11,North,32767,0.0,0.0,82,0.00,,,0.00,Wunderground v.1.15,2013-05-28 01:56:00,
2013-05-27 22:01:00,48.1,43.2,30.11,North,32767,0.0,0.0,83,0.00,,,0.00,Wunderground v.1.15,2013-05-28 02:01:00,
2013-05-27 22:06:00,47.8,42.9,30.11,North,32767,0.0,0.0,83,0.00,,,0.00,Wunderground v.1.15,2013-05-28 02:06:00,
2013-05-27 22:11:00,47.6,42.1,30.12,North,32767,0.0,0.0,81,0.00,,,0.00,Wunderground v.1.15,2013-05-28 02:11:00,
2013-05-27 22:16:00,47.3,41.8,30.12,North,32767,0.0,0.0,81,0.00,,,0.00,Wunderground v.1.15,2013-05-28 02:16:00,
2013-05-27 22:21:00,47.0,42.1,30.12,North,32767,0.0,0.0,83,0.00,,,0.00,Wunderground v.1.15,2013-05-28 02:21:00,
2013-05-27 22:26:00,46.8,42.2,30.12,North,32767,0.0,0.0,84,0.00,,,0.00,Wunderground v.1.15,2013-05-28 02:26:00,
2013-05-27 22:31:00,46.4,41.8,30.12,North,32767,0.0,0.0,84,0.00,,,0.00,Wunderground v.1.15,2013-05-28 02:31:00,
2013-05-27 22:36:00,46.1,41.5,30.12,North,32767,0.0,0.0,84,0.00,,,0.00,Wunderground v.1.15,2013-05-28 02:36:00,
2013-05-27 22:41:00,46.0,41.7,30.12,North,32767,0.0,0.0,85,0.00,,,0.00,Wunderground v.1.15,2013-05-28 02:41:00,
2013-05-27 22:46:00,45.9,41.9,30.12,North,32767,0.0,0.0,86,0.00,,,0.00,Wunderground v.1.15,2013-05-28 02:46:00,
2013-05-27 22:51:00,45.8,42.2,30.12,North,32767,0.0,0.0,87,0.00,,,0.00,Wunderground v.1.15,2013-05-28 02:51:00,
2013-05-27 22:56:00,45.8,42.2,30.13,North,32767,0.0,0.0,87,0.00,,,0.00,Wunderground v.1.15,2013-05-28 02:56:00,
2013-05-27 23:01:00,45.8,41.5,30.13,North,32767,0.0,0.0,85,0.00,,,0.00,Wunderground v.1.15,2013-05-28 03:01:00,
2013-05-27 23:06:00,46.1,41.8,30.12,North,32767,0.0,0.0,85,0.00,,,0.00,Wunderground v.1.15,2013-05-28 03:06:00,
2013-05-27 23:11:00,46.6,42.3,30.12,North,32767,0.0,0.0,85,0.00,,,0.00,Wunderground v.1.15,2013-05-28 03:11:00,
2013-05-27 23:16:00,46.8,42.2,30.12,North,32767,0.0,0.0,84,0.00,,,0.00,Wunderground v.1.15,2013-05-28 03:16:00,
2013-05-27 23:21:00,46.9,41.4,30.13,North,32767,0.0,0.0,81,0.00,,,0.00,Wunderground v.1.15,2013-05-28 03:21:00,
2013-05-27 23:26:00,46.9,41.4,30.12,North,32767,0.0,0.0,81,0.00,,,0.00,Wunderground v.1.15,2013-05-28 03:26:00,
2013-05-27 23:31:00,47.0,41.8,30.13,North,32767,0.0,0.0,82,0.00,,,0.00,Wunderground v.1.15,2013-05-28 03:31:00,
2013-05-27 23:36:00,47.0,41.8,30.13,North,32767,0.0,0.0,82,0.00,,,0.00,Wunderground v.1.15,2013-05-28 03:36:00,
2013-05-27 23:41:00,47.0,41.8,30.13,North,32767,0.0,0.0,82,0.00,,,0.00,Wunderground v.1.15,2013-05-28 03:41:00,
2013-05-27 23:46:00,47.1,40.9,30.13,North,32767,0.0,0.0,79,0.00,,,0.00,Wunderground v.1.15,2013-05-28 03:46:00,
2013-05-27 23:51:00,47.8,40.3,30.13,North,32767,0.0,0.0,75,0.00,,,0.00,Wunderground v.1.15,2013-05-28 03:51:00,
2013-05-27 23:56:00,48.6,39.6,30.14,North,32767,0.0,0.0,71,0.00,,,0.00,Wunderground v.1.15,2013-05-28 03:56:00,